Погода в Корлики

Погода в Корлики : погода сейчас, прогноз погоды и архив. Всё, что Вы хотите узнать о погоде в Корлики!

Поиск расширенной информации на нашем сайте:

Другие новости

Новости СМИ2

Главная страница сайта

Новости сайта

03.07.2017

Напоминаем, что на нашем специализированном сайте Метеоцентр.Азия вы можете получить высокодетализированные автоматические прогнозы погоды по пунктам России, СНГ и мира в авиационном формате (включающие направление и скорость ветра, видимость, явления погоды, количество и форму облачности, нижнюю и верхнюю границу облачности).


Погода в Корлики - сегодня

Время (UTC), дата Ветер
(°,м/с) 
Видим.   Явления Облачность Т
(°С)
Тd
(°С)
f(%) Тe
(°С)
Pmin
(гПа)
dP
(гПа)
Po
(мм)
O2
(г/м3)
Тmin Tmax R s Состояние
почвы
15 09.12.17 060 (СВ) 10 км    4/0 верхняя 
[Cs]
-21.8 -24.1 82 -22  1027.8  -1  763  336    -17.7       
18 09.12.17 060 (СВ) 10 км    3/0 верхняя 
[Cs]
-20 -22.2 83 -23  1026.1  -1.7  762  333           
21 09.12.17 070 (В) 10 км    ясно 
-19.8 -22 83 -23  1024.3  -1.7  761  332           
00 10.12.17 070 (В) 10 км    ясно 
-20.5 -22.7 83 -21  1023.8  -0.5  760  333           
03 10.12.17 080 (В) 10 км    9/9 600 м 
[Sc]
-17.2 -19.2 84 -17  1022.2  -1.4  759  328  -22.1      32  равномерный
сухой снег
100% 
06 10.12.17 070 (В) н/о    н/о 
-15.2 -17.1 85 -15  1021.3  759  325           
09 10.12.17 100 (В) 10 км    8/0 средняя, верхняя 
[As op|Ci fib]
-17.3 -19.3 84 -17  1021.6  -0.7  759  328           
12 10.12.17 080 (В) н/о    н/о 
-17.6 -19.7 84 -18  1020.5  -0.6  758  328           
15 10.12.17 170 (Ю) 10 км    10/0 средняя 
[As op]
-13.3 -14.8 88 -13  1021.6  1.3  759  323    -13.3       
18 10.12.17 150 (ЮВ) н/о    н/о 
-12.1 -13.6 89 -12  1021.9  0.4  760  322           
21 10.12.17 150 (ЮВ) 4000 м  слаб. снег  10/0 средняя 
[As op]
-11.4 -12.9 89 -11  1023.2  0.4  760  321           
00 11.12.17 тихо ()   10 км  {снег}  9/0 средняя 
[As trans]
-11.7 -13.3 88 -12  1023.9  0.7  761  321           
03 11.12.17 тихо ()   4000 м  слаб. снег  10/0 средняя 
[As trans]
-14.1 -15.8 87 -14  1024.8  0.7  761  325  -14.1    0.5  32  равномерный
сухой снег
100% 
06 11.12.17 тихо ()   н/о    н/о 
-10.2 -11.6 89 -10  1024.3  0.7  761  320  -14.2         
09 11.12.17 тихо ()   10 км  {снег}  10/10 300 м 
[St]
-10.2 -11.6 89 -10  1025.9  0.6  762  320           
12 11.12.17 тихо ()   н/о    н/о 
-10.6 -12 89 -11  1025.8  0.9  763  321           
15 11.12.17 350 (С) 4000 м  слаб. снег  10/0 средняя 
[As op]
-12.3 -14.2 86 -12  1028  1.2  764  323    -9.8  0.4     
18 11.12.17 300 (СЗ) 10 км  {снег}  4/0 средняя 
[As op]
-19 -21.2 83 -19  1029.3  0.9  764  333           
21 11.12.17 240 (ЮЗ) 10 км    ясно 
-25.1 -27.8 78 -26  1030.3  0.8  765  341           
00 12.12.17 220 (ЮЗ) 10 км    ясно 
-24.6 -26.9 81 -25  1030.1  -0.2  765  340           
03 12.12.17 230 (ЮЗ) 10 км    10/0 верхняя 
[Cs]
-23.5 -26.1 79 -24  1030.6  0.5  765  339  -26.8    0.2  32  равномерный
сухой снег
100% 
06 12.12.17 240 (ЮЗ) н/о    н/о 
-20.7 -23.1 81 -24  1029.6  0.1  765  335           
09 12.12.17 240 (ЮЗ) 4000 м  слаб. снег  10/0 средняя 
[Ac As]
-19 -21.3 82 -22  1030.4  -0.1  765  333           
12 12.12.17 230 (ЮЗ) н/о    н/о 
-17.3 -19.3 84 -17  1029.7  0.4  765  331           
15 12.12.17 230 (ЮЗ) 4000 м  слаб. снег  9/9 600 м 
[Sc]
-15.7 -17.6 85 -18  1030.2  0.6  766  329    -15.7     
Время (UTC), дата Ветер
(°,м/с) 
Видим.   Явления Облачность Т
(°С)
Тd
(°С)
f(%) Тe
(°С)
Pmin
(гПа)
dP
(гПа)
Po
(мм)
O2
(г/м3)
Тmin Tmax R s Состояние
почвы

Для получения пояснительной информации подведите курсор к названию столбца.

ПОГОДА в Корлики - архив

Всё, что Вы хотите узнать о погоде в Корлики - удобно и подробно!

Выберите нужную дату (начиная с 1 января 2015* года) и нажмите кнопку "Найти".
Будут отображены архивные сводки погоды по пункту Корлики, начиная с указанной даты.


Отображать данные в формате CSV (для использования в таблицах Excel)


Внимание! Наш архив погоды предназначен исключительно для личного некоммерческого использования в познавательных целях. Если Вам необходимы официальные справки о состоянии погоды (для производственных, юридических, коммерческих и т.п. целей), обращайтесь в органы Росгидромета.

*Примечание: данная дата относится к архиву по метеостанциям СССР (Россия, СНГ, Балтия).
Архив по метеостанциям Зарубежной Европы и Азии (кроме Китая) хранится 10 дней, по другим регионам земного шара (Китай, Африка, Америка, Австралия, Океания) - 1 день.

Корлики - район местоположения метеостанции


Название, широта, долгота, высота метеостанции:
Корлики 61.5°ш. 82.4°д. 80 м над ур. моря [Российская Федерация]

Дополнительная информация

В oтличие oт бoльшинства пoгoдных сайтoв мы публикуем пoдрoбную метеoинфoрмацию в детальнoм прoфессиoнальнoм фoрмате.

Характеристики температуры и влажнoсти вoздуха измеряются на высoте 2 м в тени вдали oт зданий и деревьев.
Скoрoсть ветра измеряется на высoте 10 м (на урoвне рoста челoвека скoрoсть ветра ниже в 1.5-2 раза). Если метеoстанция нахoдится в гoрoде или в лесу, тo скoрoсть ветра занижена на 2-4 м/с пo сравнению с oткрытым местoм. Скoрoсть ветра над акватoриями крупных рек и oзёр, а также на вершинах хoлмoв на 2-5 м/с выше, чем в oбычных услoвиях.
Атмoсфернoе давление в разных тoчках местнoсти мoжет значительнo oтличаться oт давления на метеoстанции, в зависимoсти oт услoвий рельефа (при пoдъёме на 10 м давление пoнижается примернo на 1 мм рт.ст.).